HA3H LHBP-LFKC

Flight info

Callsign HA3H
Flight time 2h 21m
Altitude 6000
Route LHBP GILEP DIMLO PEVAL MIRSA A3 CAPCO CAPCO2K LFKC
Aircraft DC6/M-FLUV/LB1

Departure

Time 2026-04-23 17:17
Airport Budapest Liszt Ferenc International Airport (LHBP)

Arrival

Time 2026-04-23 19:38
Airport Calvi Sainte Catherine Airport (LFKC)
Time Latitude Longitude Altitude Speed Heading
2026-04-23 16:57 47.44012 19.22609 457 ft 0 kts 319°
2026-04-23 17:08 47.44014 19.22606 457 ft 0 kts 303°
2026-04-23 17:09 47.44015 19.22601 457 ft 1 kts 280°
2026-04-23 17:09 47.44014 19.22596 457 ft 1 kts 251°
2026-04-23 17:09 47.44008 19.22586 457 ft 1 kts 204°
2026-04-23 17:09 47.43999 19.22588 457 ft 2 kts 149°
2026-04-23 17:10 47.43971 19.22615 457 ft 7 kts 147°
2026-04-23 17:10 47.43939 19.22646 457 ft 9 kts 147°
2026-04-23 17:10 47.43874 19.22707 457 ft 13 kts 147°
2026-04-23 17:10 47.43792 19.22789 457 ft 15 kts 145°
2026-04-23 17:11 47.43709 19.22882 457 ft 14 kts 143°
2026-04-23 17:11 47.43620 19.22975 457 ft 17 kts 144°
2026-04-23 17:11 47.43519 19.23089 457 ft 20 kts 143°
2026-04-23 17:11 47.43426 19.23234 457 ft 19 kts 113°
2026-04-23 17:12 47.43362 19.23423 457 ft 22 kts 116°
2026-04-23 17:12 47.43292 19.23640 457 ft 24 kts 117°
2026-04-23 17:12 47.43213 19.23875 457 ft 27 kts 116°
2026-04-23 17:12 47.43129 19.24145 457 ft 30 kts 114°
2026-04-23 17:13 47.43029 19.24430 457 ft 32 kts 115°
2026-04-23 17:13 47.42976 19.24590 457 ft 2 kts 120°
2026-04-23 17:13 47.42965 19.24618 457 ft 4 kts 120°
2026-04-23 17:13 47.42947 19.24665 457 ft 6 kts 114°
2026-04-23 17:14 47.42934 19.24745 457 ft 11 kts 95°
2026-04-23 17:14 47.42945 19.24842 458 ft 12 kts 61°
2026-04-23 17:14 47.43012 19.24914 458 ft 12 kts 38°
2026-04-23 17:14 47.43095 19.24943 457 ft 14 kts 332°
2026-04-23 17:15 47.43106 19.24930 457 ft 0 kts 311°
2026-04-23 17:15 47.43111 19.24922 457 ft 5 kts 312°
2026-04-23 17:15 47.43215 19.24752 456 ft 40 kts 314°
2026-04-23 17:15 47.43500 19.24294 451 ft 80 kts 313°
2026-04-23 17:16 47.43939 19.23585 456 ft 105 kts 312°
2026-04-23 17:16 47.44479 19.22762 508 ft 117 kts 315°
2026-04-23 17:16 47.45057 19.21898 680 ft 120 kts 313°
2026-04-23 17:16 47.45671 19.20969 783 ft 134 kts 314°
2026-04-23 17:17 47.46343 19.19988 1008 ft 134 kts 315°
2026-04-23 17:17 47.47056 19.19003 1123 ft 148 kts 317°
2026-04-23 17:17 47.47802 19.17919 1363 ft 151 kts 316°
2026-04-23 17:17 47.48541 19.16795 1624 ft 157 kts 316°
2026-04-23 17:18 47.50100 19.14065 1714 ft 188 kts 299°
2026-04-23 17:18 47.50333 19.12103 1795 ft 202 kts 270°
2026-04-23 17:18 47.49857 19.10110 1894 ft 214 kts 241°
2026-04-23 17:19 47.48766 19.08558 1995 ft 223 kts 217°
2026-04-23 17:19 47.47416 19.07397 2124 ft 227 kts 207°
2026-04-23 17:19 47.45876 19.06772 2243 ft 231 kts 191°
2026-04-23 17:19 47.44324 19.06204 2333 ft 230 kts 206°
2026-04-23 17:20 47.43076 19.04787 2462 ft 223 kts 235°
2026-04-23 17:20 47.42469 19.00687 2932 ft 200 kts 284°
2026-04-23 17:21 47.42973 18.96704 3364 ft 196 kts 282°
2026-04-23 17:21 47.43129 18.94705 3599 ft 195 kts 281°
2026-04-23 17:21 47.43447 18.90708 4095 ft 197 kts 281°
2026-04-23 17:22 47.43603 18.88697 4354 ft 197 kts 281°
2026-04-23 17:22 47.43914 18.84671 4889 ft 197 kts 282°
2026-04-23 17:23 47.44227 18.80678 5325 ft 197 kts 282°
2026-04-23 17:23 47.44381 18.78665 5565 ft 197 kts 282°
2026-04-23 17:23 47.44691 18.74647 6018 ft 197 kts 282°
2026-04-23 17:24 47.44846 18.72642 6236 ft 197 kts 282°
2026-04-23 17:24 47.44999 18.70638 6448 ft 196 kts 282°
2026-04-23 17:24 47.45306 18.66623 6804 ft 197 kts 282°
2026-04-23 17:25 47.45614 18.62580 7191 ft 199 kts 282°
2026-04-23 17:25 47.45768 18.60550 7370 ft 199 kts 282°
2026-04-23 17:26 47.46075 18.56468 7758 ft 201 kts 281°
2026-04-23 17:26 47.46386 18.52336 8154 ft 203 kts 281°
2026-04-23 17:27 47.46697 18.48178 8548 ft 205 kts 281°
2026-04-23 17:27 47.46855 18.46081 8765 ft 206 kts 281°
2026-04-23 17:27 47.47010 18.43980 8975 ft 206 kts 281°
2026-04-23 17:27 47.47166 18.41873 9181 ft 206 kts 281°
2026-04-23 17:28 47.47323 18.39763 9391 ft 207 kts 281°
2026-04-23 17:28 47.47479 18.37645 9608 ft 207 kts 281°
2026-04-23 17:28 47.47635 18.35524 9804 ft 208 kts 281°
2026-04-23 17:28 47.47792 18.33397 9998 ft 208 kts 281°
2026-04-23 17:29 47.47946 18.31270 10169 ft 208 kts 281°
2026-04-23 17:29 47.48101 18.29145 10343 ft 208 kts 281°
2026-04-23 17:29 47.48031 18.24893 10602 ft 217 kts 251°
2026-04-23 17:30 47.47229 18.22989 10761 ft 219 kts 237°
2026-04-23 17:30 47.45553 18.19303 11082 ft 218 kts 242°
2026-04-23 17:30 47.44760 18.17392 11248 ft 219 kts 242°
2026-04-23 17:31 47.43952 18.15483 11424 ft 219 kts 242°
2026-04-23 17:31 47.43142 18.13571 11592 ft 220 kts 242°
2026-04-23 17:31 47.42332 18.11655 11764 ft 220 kts 242°
2026-04-23 17:31 47.41520 18.09741 11913 ft 220 kts 242°
2026-04-23 17:32 47.40707 18.07822 12080 ft 221 kts 242°
2026-04-23 17:32 47.39874 18.05854 12061 ft 230 kts 242°
2026-04-23 17:32 47.39016 18.03835 12063 ft 234 kts 241°
2026-04-23 17:32 47.38147 18.01790 12065 ft 236 kts 242°
2026-04-23 17:33 47.37269 17.99726 12062 ft 238 kts 241°
2026-04-23 17:33 47.36386 17.97653 12063 ft 239 kts 242°
2026-04-23 17:33 47.35499 17.95569 12060 ft 240 kts 241°
2026-04-23 17:33 47.34611 17.93489 12060 ft 240 kts 241°
2026-04-23 17:34 47.33724 17.91405 12060 ft 240 kts 241°
2026-04-23 17:34 47.32833 17.89318 12065 ft 240 kts 241°
2026-04-23 17:34 47.31050 17.85145 12058 ft 240 kts 241°
2026-04-23 17:35 47.30159 17.83060 12058 ft 241 kts 241°
2026-04-23 17:35 47.28371 17.78888 12064 ft 241 kts 241°
2026-04-23 17:35 47.27476 17.76798 12060 ft 241 kts 241°
2026-04-23 17:36 47.26579 17.74706 12057 ft 241 kts 241°
2026-04-23 17:36 47.25681 17.72619 12059 ft 242 kts 241°
2026-04-23 17:36 47.24795 17.70556 12060 ft 242 kts 241°
2026-04-23 17:36 47.23897 17.68465 12054 ft 241 kts 241°
2026-04-23 17:37 47.23000 17.66381 12053 ft 242 kts 241°
2026-04-23 17:37 47.22099 17.64291 12051 ft 242 kts 241°
2026-04-23 17:37 47.20300 17.60119 12055 ft 241 kts 241°
2026-04-23 17:38 47.19400 17.58035 12048 ft 241 kts 241°
2026-04-23 17:38 47.18503 17.55953 12052 ft 241 kts 241°
2026-04-23 17:38 47.17602 17.53872 12054 ft 241 kts 242°
2026-04-23 17:38 47.16703 17.51795 12052 ft 241 kts 241°
2026-04-23 17:39 47.15804 17.49719 12049 ft 241 kts 241°
2026-04-23 17:39 47.14903 17.47640 12052 ft 241 kts 241°
2026-04-23 17:39 47.14002 17.45564 12051 ft 241 kts 241°
2026-04-23 17:39 47.13104 17.43489 12052 ft 241 kts 241°
2026-04-23 17:40 47.12203 17.41415 12050 ft 241 kts 241°
2026-04-23 17:40 47.11300 17.39340 12057 ft 241 kts 242°
2026-04-23 17:40 47.10396 17.37260 12056 ft 242 kts 241°
2026-04-23 17:40 47.09490 17.35181 12054 ft 242 kts 241°
2026-04-23 17:41 47.08585 17.33103 12061 ft 242 kts 242°
2026-04-23 17:41 47.06769 17.28936 12059 ft 243 kts 241°
2026-04-23 17:41 47.05859 17.26853 12061 ft 243 kts 241°
2026-04-23 17:42 47.04037 17.22682 12062 ft 243 kts 242°
2026-04-23 17:42 47.03125 17.20600 12063 ft 243 kts 241°
2026-04-23 17:42 47.02212 17.18515 12059 ft 243 kts 242°
2026-04-23 17:43 47.01299 17.16430 12064 ft 243 kts 242°
2026-04-23 17:43 47.00386 17.14350 12065 ft 243 kts 242°
2026-04-23 17:43 46.99472 17.12268 12067 ft 243 kts 242°
2026-04-23 17:43 46.98569 17.10212 12063 ft 243 kts 241°
2026-04-23 17:44 46.97653 17.08128 12070 ft 243 kts 242°
2026-04-23 17:44 46.96736 17.06044 12072 ft 243 kts 242°
2026-04-23 17:44 46.94900 17.01874 12069 ft 244 kts 241°
2026-04-23 17:45 46.93981 16.99788 12075 ft 244 kts 241°
2026-04-23 17:45 46.92137 16.95611 12073 ft 244 kts 241°
2026-04-23 17:45 46.91216 16.93528 12066 ft 244 kts 241°
2026-04-23 17:46 46.89370 16.89354 12065 ft 244 kts 241°
2026-04-23 17:46 46.88447 16.87269 12066 ft 244 kts 241°
2026-04-23 17:46 46.87522 16.85185 12064 ft 244 kts 241°
2026-04-23 17:47 46.86599 16.83104 12063 ft 244 kts 241°
2026-04-23 17:47 46.85675 16.81022 12068 ft 244 kts 241°
2026-04-23 17:47 46.83823 16.76854 12070 ft 245 kts 241°
2026-04-23 17:48 46.82895 16.74767 12071 ft 245 kts 241°
2026-04-23 17:48 46.81964 16.72676 12071 ft 246 kts 241°
2026-04-23 17:48 46.81032 16.70588 12074 ft 245 kts 241°
2026-04-23 17:48 46.80101 16.68498 12070 ft 246 kts 241°
2026-04-23 17:49 46.79169 16.66407 12078 ft 246 kts 241°
2026-04-23 17:49 46.78234 16.64318 12078 ft 246 kts 241°
2026-04-23 17:49 46.77302 16.62231 12077 ft 246 kts 241°
2026-04-23 17:49 46.76369 16.60142 12078 ft 246 kts 241°
2026-04-23 17:50 46.75436 16.58060 12074 ft 246 kts 241°
2026-04-23 17:50 46.73579 16.53917 12079 ft 246 kts 241°
2026-04-23 17:50 46.72644 16.51832 12074 ft 246 kts 241°
2026-04-23 17:51 46.71711 16.49751 12076 ft 245 kts 241°
2026-04-23 17:51 46.70776 16.47673 12077 ft 245 kts 241°
2026-04-23 17:51 46.68906 16.43514 12075 ft 245 kts 241°
2026-04-23 17:52 46.68005 16.41415 12075 ft 243 kts 245°
2026-04-23 17:52 46.66274 16.37189 12080 ft 243 kts 243°
2026-04-23 17:52 46.65403 16.35077 12076 ft 243 kts 244°
2026-04-23 17:53 46.63675 16.30840 12079 ft 243 kts 243°
2026-04-23 17:53 46.62809 16.28727 12080 ft 243 kts 243°
2026-04-23 17:53 46.61941 16.26613 12078 ft 243 kts 244°
2026-04-23 17:54 46.61076 16.24503 12082 ft 243 kts 243°
2026-04-23 17:54 46.60207 16.22389 12081 ft 243 kts 243°
2026-04-23 17:54 46.58474 16.18171 12076 ft 243 kts 243°
2026-04-23 17:55 46.56736 16.13952 12084 ft 243 kts 243°
2026-04-23 17:55 46.55866 16.11843 12082 ft 243 kts 244°
2026-04-23 17:55 46.54996 16.09734 12078 ft 243 kts 243°
2026-04-23 17:56 46.54126 16.07626 12079 ft 243 kts 244°
2026-04-23 17:56 46.52379 16.03400 12079 ft 244 kts 243°
2026-04-23 17:56 46.51514 16.01313 12079 ft 244 kts 244°
2026-04-23 17:57 46.50628 15.99170 12078 ft 245 kts 243°
2026-04-23 17:57 46.49762 15.97081 12078 ft 245 kts 244°
2026-04-23 17:57 46.48006 15.92849 12074 ft 245 kts 243°
2026-04-23 17:58 46.47128 15.90737 12073 ft 245 kts 244°
2026-04-23 17:58 46.46250 15.88622 12077 ft 245 kts 244°
2026-04-23 17:58 46.45370 15.86511 12074 ft 245 kts 244°
2026-04-23 17:58 46.44492 15.84401 12069 ft 244 kts 244°
2026-04-23 17:59 46.43614 15.82293 12070 ft 244 kts 244°
2026-04-23 17:59 46.42735 15.80185 12075 ft 245 kts 244°
2026-04-23 17:59 46.41853 15.78075 12069 ft 244 kts 243°
2026-04-23 17:59 46.40974 15.75968 12072 ft 244 kts 244°
2026-04-23 18:00 46.40094 15.73863 12077 ft 244 kts 244°
2026-04-23 18:00 46.39213 15.71756 12076 ft 244 kts 243°
2026-04-23 18:00 46.38331 15.69650 12077 ft 244 kts 243°
2026-04-23 18:00 46.37736 15.68229 12078 ft 244 kts 243°
2026-04-23 18:01 46.36855 15.66128 12081 ft 244 kts 243°
2026-04-23 18:01 46.35974 15.64026 12073 ft 244 kts 243°
2026-04-23 18:01 46.35090 15.61923 12076 ft 245 kts 243°
2026-04-23 18:01 46.34218 15.59847 12082 ft 245 kts 243°
2026-04-23 18:02 46.33332 15.57738 12087 ft 245 kts 243°
2026-04-23 18:02 46.32448 15.55637 12087 ft 245 kts 243°
2026-04-23 18:02 46.31561 15.53532 12089 ft 245 kts 243°
2026-04-23 18:02 46.30675 15.51426 12086 ft 245 kts 243°
2026-04-23 18:03 46.29786 15.49320 12087 ft 245 kts 243°
2026-04-23 18:03 46.28897 15.47211 12084 ft 246 kts 243°
2026-04-23 18:03 46.28003 15.45096 12084 ft 246 kts 243°
2026-04-23 18:03 46.27111 15.42993 12086 ft 245 kts 243°
2026-04-23 18:04 46.26224 15.40889 12082 ft 246 kts 243°
2026-04-23 18:04 46.25332 15.38779 12080 ft 246 kts 243°
2026-04-23 18:04 46.24438 15.36673 12080 ft 246 kts 243°
2026-04-23 18:04 46.23544 15.34565 12082 ft 246 kts 243°
2026-04-23 18:05 46.22650 15.32454 12088 ft 247 kts 243°
2026-04-23 18:05 46.21751 15.30339 12090 ft 247 kts 243°
2026-04-23 18:05 46.20852 15.28222 12090 ft 247 kts 243°
2026-04-23 18:05 46.19950 15.26101 12089 ft 249 kts 242°
2026-04-23 18:06 46.19041 15.23967 12088 ft 249 kts 242°
2026-04-23 18:06 46.18135 15.21839 12088 ft 250 kts 242°
2026-04-23 18:06 46.17222 15.19699 12097 ft 252 kts 243°
2026-04-23 18:06 46.16306 15.17550 12093 ft 251 kts 242°
2026-04-23 18:07 46.15390 15.15406 12077 ft 250 kts 242°
2026-04-23 18:07 46.14480 15.13272 12082 ft 250 kts 242°
2026-04-23 18:07 46.13570 15.11142 12086 ft 249 kts 242°
2026-04-23 18:07 46.12656 15.09011 12082 ft 250 kts 242°
2026-04-23 18:08 46.11743 15.06875 12080 ft 251 kts 242°
2026-04-23 18:08 46.10825 15.04734 12089 ft 252 kts 242°
2026-04-23 18:08 46.09902 15.02585 12087 ft 252 kts 243°
2026-04-23 18:08 46.08986 15.00447 12089 ft 251 kts 242°
2026-04-23 18:09 46.08069 14.98311 12086 ft 251 kts 242°
2026-04-23 18:09 46.07147 14.96170 12089 ft 252 kts 242°
2026-04-23 18:09 46.06235 14.94052 12089 ft 252 kts 242°
2026-04-23 18:09 46.05314 14.91908 12087 ft 252 kts 242°
2026-04-23 18:10 46.04390 14.89762 12087 ft 252 kts 242°
2026-04-23 18:10 46.03467 14.87627 12086 ft 251 kts 242°
2026-04-23 18:10 46.02546 14.85492 12084 ft 251 kts 242°
2026-04-23 18:10 46.01625 14.83354 12081 ft 252 kts 242°
2026-04-23 18:11 46.00701 14.81219 12082 ft 251 kts 242°
2026-04-23 18:11 45.99780 14.79084 12084 ft 251 kts 242°
2026-04-23 18:11 45.98854 14.76951 12078 ft 251 kts 242°
2026-04-23 18:11 45.97932 14.74823 12090 ft 251 kts 242°
2026-04-23 18:12 45.97012 14.72696 12091 ft 250 kts 242°
2026-04-23 18:12 45.96089 14.70569 12089 ft 251 kts 242°
2026-04-23 18:12 45.95167 14.68447 12087 ft 251 kts 242°
2026-04-23 18:12 45.94243 14.66321 12092 ft 251 kts 242°
2026-04-23 18:13 45.93319 14.64195 12092 ft 251 kts 242°
2026-04-23 18:13 45.92392 14.62063 12090 ft 252 kts 242°
2026-04-23 18:13 45.91464 14.59932 12096 ft 252 kts 242°
2026-04-23 18:13 45.90531 14.57794 12101 ft 253 kts 242°
2026-04-23 18:14 45.89596 14.55646 12103 ft 254 kts 242°
2026-04-23 18:14 45.88656 14.53492 12106 ft 255 kts 242°
2026-04-23 18:14 45.87712 14.51333 12101 ft 255 kts 242°
2026-04-23 18:14 45.86771 14.49183 12108 ft 255 kts 242°
2026-04-23 18:15 45.85829 14.47029 12113 ft 254 kts 242°
2026-04-23 18:15 45.84888 14.44875 12104 ft 255 kts 242°
2026-04-23 18:15 45.83957 14.42754 12107 ft 255 kts 242°
2026-04-23 18:15 45.83015 14.40608 12105 ft 254 kts 242°
2026-04-23 18:16 45.82080 14.38472 12106 ft 252 kts 242°
2026-04-23 18:16 45.81145 14.36346 12113 ft 252 kts 242°
2026-04-23 18:16 45.80208 14.34214 12108 ft 252 kts 242°
2026-04-23 18:17 45.78339 14.29962 12116 ft 253 kts 242°
2026-04-23 18:17 45.77400 14.27830 12126 ft 254 kts 242°
2026-04-23 18:17 45.76452 14.25685 12122 ft 255 kts 242°
2026-04-23 18:17 45.75509 14.23544 12127 ft 254 kts 242°
2026-04-23 18:18 45.74567 14.21409 12127 ft 254 kts 242°
2026-04-23 18:18 45.73621 14.19268 12131 ft 254 kts 241°
2026-04-23 18:18 45.72675 14.17132 12133 ft 254 kts 241°
2026-04-23 18:18 45.71728 14.14991 12131 ft 254 kts 241°
2026-04-23 18:19 45.70782 14.12854 12135 ft 254 kts 241°
2026-04-23 18:19 45.69837 14.10720 12137 ft 255 kts 241°
2026-04-23 18:19 45.68888 14.08580 12138 ft 254 kts 241°
2026-04-23 18:19 45.67939 14.06445 12126 ft 253 kts 241°
2026-04-23 18:20 45.67003 14.04337 12124 ft 251 kts 241°
2026-04-23 18:20 45.66069 14.02235 12129 ft 250 kts 241°
2026-04-23 18:20 45.65134 14.00132 12130 ft 251 kts 241°
2026-04-23 18:20 45.64194 13.98020 12138 ft 252 kts 241°
2026-04-23 18:21 45.63251 13.95903 12136 ft 253 kts 241°
2026-04-23 18:21 45.62304 13.93782 12143 ft 253 kts 241°
2026-04-23 18:21 45.61371 13.91689 12139 ft 254 kts 241°
2026-04-23 18:21 45.60422 13.89561 12146 ft 255 kts 240°
2026-04-23 18:22 45.59466 13.87425 12138 ft 255 kts 240°
2026-04-23 18:22 45.58511 13.85291 12125 ft 254 kts 241°
2026-04-23 18:22 45.57563 13.83171 12131 ft 253 kts 240°
2026-04-23 18:22 45.56612 13.81045 12132 ft 254 kts 240°
2026-04-23 18:23 45.55969 13.79608 12135 ft 255 kts 240°
2026-04-23 18:23 45.53745 13.74657 12140 ft 255 kts 240°
2026-04-23 18:24 45.51830 13.70393 12141 ft 255 kts 240°
2026-04-23 18:24 45.50871 13.68260 12138 ft 255 kts 240°
2026-04-23 18:24 45.49912 13.66133 12141 ft 255 kts 240°
2026-04-23 18:25 45.47988 13.61864 12140 ft 256 kts 240°
2026-04-23 18:25 45.47023 13.59726 12139 ft 256 kts 240°
2026-04-23 18:25 45.46061 13.57597 12136 ft 256 kts 240°
2026-04-23 18:25 45.45100 13.55467 12136 ft 255 kts 240°
2026-04-23 18:26 45.44139 13.53341 12134 ft 255 kts 240°
2026-04-23 18:26 45.43177 13.51220 12135 ft 255 kts 240°
2026-04-23 18:26 45.42217 13.49098 12133 ft 255 kts 240°
2026-04-23 18:26 45.41258 13.46983 12129 ft 255 kts 240°
2026-04-23 18:27 45.40310 13.44892 12128 ft 254 kts 240°
2026-04-23 18:27 45.39350 13.42777 12129 ft 254 kts 240°
2026-04-23 18:27 45.38391 13.40666 12126 ft 254 kts 240°
2026-04-23 18:27 45.37433 13.38558 12129 ft 254 kts 240°
2026-04-23 18:28 45.36472 13.36447 12127 ft 254 kts 240°
2026-04-23 18:28 45.35514 13.34342 12129 ft 254 kts 240°
2026-04-23 18:28 45.34553 13.32236 12132 ft 254 kts 240°
2026-04-23 18:28 45.33595 13.30133 12131 ft 253 kts 239°
2026-04-23 18:29 45.32636 13.28033 12129 ft 253 kts 239°
2026-04-23 18:29 45.31679 13.25935 12129 ft 253 kts 239°
2026-04-23 18:29 45.30635 13.23917 12129 ft 253 kts 229°
2026-04-23 18:29 45.29408 13.22128 12132 ft 253 kts 226°
2026-04-23 18:30 45.28178 13.20342 12138 ft 253 kts 228°
2026-04-23 18:30 45.26970 13.18521 12134 ft 253 kts 228°
2026-04-23 18:30 45.25761 13.16702 12138 ft 254 kts 228°
2026-04-23 18:30 45.24545 13.14885 12137 ft 254 kts 228°
2026-04-23 18:31 45.23328 13.13072 12137 ft 254 kts 228°
2026-04-23 18:31 45.22111 13.11256 12140 ft 254 kts 228°
2026-04-23 18:31 45.20894 13.09440 12143 ft 254 kts 227°
2026-04-23 18:31 45.19674 13.07624 12140 ft 254 kts 228°
2026-04-23 18:32 45.18456 13.05809 12144 ft 254 kts 227°
2026-04-23 18:32 45.17235 13.03993 12144 ft 254 kts 227°
2026-04-23 18:32 45.16016 13.02179 12142 ft 254 kts 227°
2026-04-23 18:32 45.14795 13.00366 12143 ft 254 kts 227°
2026-04-23 18:33 45.13574 12.98552 12142 ft 254 kts 227°
2026-04-23 18:33 45.12351 12.96738 12143 ft 255 kts 227°
2026-04-23 18:33 45.11129 12.94924 12141 ft 255 kts 227°
2026-04-23 18:33 45.09905 12.93111 12144 ft 255 kts 227°
2026-04-23 18:34 45.08680 12.91297 12143 ft 255 kts 227°
2026-04-23 18:34 45.07458 12.89487 12143 ft 255 kts 227°
2026-04-23 18:34 45.06233 12.87677 12143 ft 255 kts 227°
2026-04-23 18:34 45.05009 12.85866 12143 ft 255 kts 227°
2026-04-23 18:35 45.03784 12.84058 12147 ft 255 kts 227°
2026-04-23 18:35 45.02560 12.82249 12148 ft 255 kts 227°
2026-04-23 18:35 45.01351 12.80467 12150 ft 254 kts 227°
2026-04-23 18:35 45.00128 12.78664 12147 ft 254 kts 227°
2026-04-23 18:36 44.98903 12.76859 12145 ft 254 kts 227°
2026-04-23 18:36 44.97678 12.75055 12147 ft 254 kts 227°
2026-04-23 18:36 44.96454 12.73255 12148 ft 254 kts 227°
2026-04-23 18:36 44.95229 12.71453 12148 ft 254 kts 227°
2026-04-23 18:37 44.94004 12.69654 12150 ft 254 kts 227°
2026-04-23 18:37 44.92782 12.67858 12148 ft 254 kts 227°
2026-04-23 18:37 44.91558 12.66063 12151 ft 254 kts 227°
2026-04-23 18:37 44.90335 12.64268 12150 ft 254 kts 227°
2026-04-23 18:38 44.89112 12.62476 12149 ft 254 kts 227°
2026-04-23 18:38 44.87887 12.60683 12150 ft 254 kts 227°
2026-04-23 18:38 44.86666 12.58894 12149 ft 253 kts 227°
2026-04-23 18:38 44.85440 12.57102 12145 ft 254 kts 227°
2026-04-23 18:39 44.84217 12.55314 12153 ft 253 kts 227°
2026-04-23 18:39 44.82992 12.53526 12149 ft 253 kts 227°
2026-04-23 18:39 44.81769 12.51739 12150 ft 253 kts 227°
2026-04-23 18:39 44.80543 12.49952 12150 ft 253 kts 227°
2026-04-23 18:40 44.79319 12.48166 12147 ft 253 kts 227°
2026-04-23 18:40 44.78096 12.46384 12146 ft 253 kts 227°
2026-04-23 18:40 44.76870 12.44598 12150 ft 253 kts 227°
2026-04-23 18:40 44.75645 12.42818 12149 ft 253 kts 227°
2026-04-23 18:41 44.74419 12.41034 12147 ft 253 kts 227°
2026-04-23 18:41 44.73195 12.39255 12148 ft 253 kts 227°
2026-04-23 18:41 44.71971 12.37477 12148 ft 253 kts 227°
2026-04-23 18:41 44.70743 12.35697 12152 ft 253 kts 226°
2026-04-23 18:42 44.69519 12.33920 12153 ft 253 kts 226°
2026-04-23 18:42 44.68293 12.32143 12153 ft 253 kts 226°
2026-04-23 18:42 44.67083 12.30391 12158 ft 253 kts 226°
2026-04-23 18:42 44.65856 12.28613 12154 ft 253 kts 226°
2026-04-23 18:43 44.64626 12.26836 12156 ft 253 kts 226°
2026-04-23 18:43 44.63399 12.25061 12156 ft 254 kts 226°
2026-04-23 18:43 44.62170 12.23285 12159 ft 254 kts 226°
2026-04-23 18:43 44.60940 12.21509 12163 ft 254 kts 226°
2026-04-23 18:44 44.59709 12.19734 12163 ft 254 kts 226°
2026-04-23 18:44 44.58478 12.17957 12164 ft 254 kts 227°
2026-04-23 18:44 44.57245 12.16182 12165 ft 254 kts 226°
2026-04-23 18:44 44.56012 12.14406 12165 ft 254 kts 226°
2026-04-23 18:45 44.54777 12.12629 12165 ft 254 kts 226°
2026-04-23 18:45 44.53544 12.10855 12169 ft 254 kts 226°
2026-04-23 18:45 44.52309 12.09080 12172 ft 254 kts 226°
2026-04-23 18:45 44.51072 12.07303 12171 ft 254 kts 226°
2026-04-23 18:46 44.49836 12.05529 12168 ft 254 kts 226°
2026-04-23 18:46 44.48598 12.03754 12171 ft 255 kts 226°
2026-04-23 18:46 44.47361 12.01980 12168 ft 255 kts 226°
2026-04-23 18:46 44.46124 12.00208 12171 ft 255 kts 226°
2026-04-23 18:47 44.44886 11.98434 12169 ft 255 kts 226°
2026-04-23 18:47 44.43646 11.96662 12171 ft 255 kts 226°
2026-04-23 18:47 44.42406 11.94888 12170 ft 255 kts 226°
2026-04-23 18:47 44.41165 11.93115 12170 ft 255 kts 226°
2026-04-23 18:48 44.39923 11.91342 12168 ft 255 kts 226°
2026-04-23 18:48 44.38698 11.89593 12171 ft 255 kts 226°
2026-04-23 18:48 44.37456 11.87821 12172 ft 255 kts 226°
2026-04-23 18:48 44.36212 11.86049 12171 ft 255 kts 226°
2026-04-23 18:49 44.34968 11.84276 12171 ft 255 kts 226°
2026-04-23 18:49 44.33725 11.82507 12172 ft 256 kts 226°
2026-04-23 18:49 44.32478 11.80733 12171 ft 256 kts 226°
2026-04-23 18:49 44.31233 11.78964 12175 ft 256 kts 226°
2026-04-23 18:50 44.30811 11.78364 12175 ft 256 kts 226°
2026-04-23 18:50 44.28739 11.75421 12178 ft 256 kts 226°
2026-04-23 18:50 44.27488 11.73645 12188 ft 256 kts 226°
2026-04-23 18:50 44.26242 11.71880 12192 ft 256 kts 226°
2026-04-23 18:51 44.24993 11.70109 12193 ft 257 kts 226°
2026-04-23 18:51 44.23737 11.68332 12193 ft 257 kts 226°
2026-04-23 18:51 44.22906 11.67154 12198 ft 257 kts 226°
2026-04-23 18:51 44.21649 11.65375 12203 ft 258 kts 226°
2026-04-23 18:52 44.20391 11.63599 12205 ft 257 kts 226°
2026-04-23 18:52 44.19132 11.61821 12203 ft 257 kts 226°
2026-04-23 18:52 44.17876 11.60045 12207 ft 257 kts 226°
2026-04-23 18:52 44.16621 11.58275 12208 ft 257 kts 226°
2026-04-23 18:53 44.15364 11.56501 12209 ft 258 kts 226°
2026-04-23 18:53 44.14101 11.54726 12210 ft 257 kts 226°
2026-04-23 18:53 44.12842 11.52951 12206 ft 257 kts 226°
2026-04-23 18:53 44.11580 11.51175 12211 ft 258 kts 226°
2026-04-23 18:54 44.10317 11.49397 12208 ft 258 kts 226°
2026-04-23 18:54 44.09055 11.47622 12211 ft 258 kts 226°
2026-04-23 18:54 44.07791 11.45846 12203 ft 259 kts 226°
2026-04-23 18:54 44.06519 11.44063 12195 ft 259 kts 226°
2026-04-23 18:55 44.05254 11.42288 12185 ft 259 kts 226°
2026-04-23 18:55 44.03982 11.40506 12181 ft 259 kts 226°
2026-04-23 18:55 44.02722 11.38741 12168 ft 256 kts 225°
2026-04-23 18:55 44.01485 11.37008 12157 ft 256 kts 226°
2026-04-23 18:56 44.00217 11.35234 12158 ft 255 kts 226°
2026-04-23 18:56 43.98982 11.33507 12152 ft 255 kts 226°
2026-04-23 18:56 43.97733 11.31760 12148 ft 255 kts 226°
2026-04-23 18:56 43.96483 11.30016 12146 ft 255 kts 226°
2026-04-23 18:57 43.95229 11.28265 12146 ft 256 kts 226°
2026-04-23 18:57 43.93973 11.26514 12140 ft 255 kts 226°
2026-04-23 18:57 43.92723 11.24771 12138 ft 255 kts 226°
2026-04-23 18:57 43.91471 11.23030 12134 ft 255 kts 226°
2026-04-23 18:58 43.90222 11.21290 12132 ft 255 kts 225°
2026-04-23 18:58 43.88971 11.19549 12133 ft 255 kts 225°
2026-04-23 18:58 43.87720 11.17805 12132 ft 255 kts 226°
2026-04-23 18:58 43.86466 11.16067 12132 ft 255 kts 225°
2026-04-23 18:59 43.85217 11.14333 12129 ft 254 kts 225°
2026-04-23 18:59 43.83966 11.12596 12130 ft 255 kts 225°
2026-04-23 18:59 43.82714 11.10859 12126 ft 255 kts 225°
2026-04-23 18:59 43.81463 11.09126 12128 ft 255 kts 225°
2026-04-23 19:00 43.80210 11.07390 12129 ft 255 kts 225°
2026-04-23 19:00 43.78956 11.05654 12134 ft 255 kts 225°
2026-04-23 19:00 43.77703 11.03921 12136 ft 255 kts 225°
2026-04-23 19:00 43.76445 11.02183 12138 ft 256 kts 225°
2026-04-23 19:01 43.75190 11.00447 12141 ft 255 kts 225°
2026-04-23 19:01 43.73932 10.98709 12146 ft 255 kts 225°
2026-04-23 19:01 43.72680 10.96984 12147 ft 255 kts 225°
2026-04-23 19:01 43.71418 10.95242 12147 ft 255 kts 225°
2026-04-23 19:02 43.70179 10.93536 12151 ft 255 kts 225°
2026-04-23 19:02 43.68922 10.91803 12155 ft 255 kts 225°
2026-04-23 19:02 43.67665 10.90073 12155 ft 255 kts 225°
2026-04-23 19:02 43.66403 10.88338 12160 ft 256 kts 225°
2026-04-23 19:03 43.65140 10.86603 12162 ft 256 kts 225°
2026-04-23 19:03 43.63878 10.84867 12169 ft 256 kts 225°
2026-04-23 19:03 43.62613 10.83131 12173 ft 256 kts 225°
2026-04-23 19:03 43.61348 10.81393 12170 ft 256 kts 225°
2026-04-23 19:04 43.60087 10.79665 12171 ft 256 kts 225°
2026-04-23 19:04 43.58821 10.77929 12166 ft 256 kts 225°
2026-04-23 19:04 43.57557 10.76200 12167 ft 256 kts 225°
2026-04-23 19:04 43.56298 10.74476 12171 ft 255 kts 225°
2026-04-23 19:05 43.55037 10.72750 12169 ft 255 kts 225°
2026-04-23 19:05 43.53779 10.71030 12172 ft 254 kts 225°
2026-04-23 19:05 43.52522 10.69314 12171 ft 254 kts 225°
2026-04-23 19:05 43.51267 10.67601 12169 ft 254 kts 225°
2026-04-23 19:06 43.50013 10.65889 12167 ft 254 kts 225°
2026-04-23 19:06 43.48758 10.64180 12165 ft 254 kts 225°
2026-04-23 19:06 43.47502 10.62467 12165 ft 254 kts 225°
2026-04-23 19:06 43.46245 10.60756 12165 ft 254 kts 225°
2026-04-23 19:07 43.44994 10.59052 12166 ft 253 kts 225°
2026-04-23 19:07 43.43745 10.57349 12171 ft 253 kts 225°
2026-04-23 19:07 43.42496 10.55654 12173 ft 252 kts 225°
2026-04-23 19:07 43.41250 10.53963 12173 ft 252 kts 225°
2026-04-23 19:08 43.40022 10.52295 12171 ft 252 kts 225°
2026-04-23 19:08 43.38775 10.50604 12175 ft 252 kts 225°
2026-04-23 19:08 43.37529 10.48913 12172 ft 252 kts 225°
2026-04-23 19:08 43.36283 10.47225 12175 ft 251 kts 225°
2026-04-23 19:09 43.35038 10.45537 12173 ft 251 kts 225°
2026-04-23 19:09 43.33791 10.43851 12173 ft 251 kts 225°
2026-04-23 19:09 43.32548 10.42167 12175 ft 251 kts 225°
2026-04-23 19:09 43.31302 10.40485 12174 ft 251 kts 225°
2026-04-23 19:10 43.30059 10.38803 12172 ft 251 kts 225°
2026-04-23 19:10 43.28813 10.37123 12174 ft 251 kts 225°
2026-04-23 19:10 43.27568 10.35442 12172 ft 251 kts 225°
2026-04-23 19:10 43.26326 10.33767 12172 ft 251 kts 225°
2026-04-23 19:11 43.25082 10.32090 12170 ft 250 kts 225°
2026-04-23 19:11 43.23840 10.30415 12174 ft 250 kts 224°
2026-04-23 19:11 43.22597 10.28744 12173 ft 250 kts 225°
2026-04-23 19:11 43.21354 10.27071 12172 ft 250 kts 225°
2026-04-23 19:12 43.20531 10.25965 12172 ft 250 kts 224°
2026-04-23 19:12 43.18871 10.23732 12172 ft 250 kts 224°
2026-04-23 19:12 43.17629 10.22066 12173 ft 250 kts 224°
2026-04-23 19:12 43.16389 10.20400 12169 ft 250 kts 224°
2026-04-23 19:13 43.15147 10.18734 12170 ft 250 kts 224°
2026-04-23 19:13 43.13907 10.17072 12168 ft 250 kts 224°
2026-04-23 19:13 43.12666 10.15410 12171 ft 250 kts 224°
2026-04-23 19:13 43.11422 10.13744 12172 ft 250 kts 224°
2026-04-23 19:14 43.10182 10.12085 12174 ft 250 kts 224°
2026-04-23 19:14 43.08942 10.10425 12172 ft 250 kts 224°
2026-04-23 19:14 43.07699 10.08765 12173 ft 250 kts 224°
2026-04-23 19:14 43.06456 10.07105 12173 ft 250 kts 224°
2026-04-23 19:15 43.05216 10.05448 12159 ft 250 kts 224°
2026-04-23 19:15 43.03981 10.03801 12060 ft 252 kts 224°
2026-04-23 19:15 43.02727 10.02131 11968 ft 251 kts 224°
2026-04-23 19:15 43.01482 10.00469 11861 ft 249 kts 224°
2026-04-23 19:16 43.00242 9.98819 11752 ft 248 kts 224°
2026-04-23 19:16 42.99009 9.97177 11642 ft 247 kts 224°
2026-04-23 19:16 42.97780 9.95544 11537 ft 246 kts 224°
2026-04-23 19:17 42.95339 9.92298 11317 ft 244 kts 224°
2026-04-23 19:17 42.94122 9.90682 11211 ft 244 kts 224°
2026-04-23 19:17 42.92912 9.89076 11165 ft 240 kts 224°
2026-04-23 19:17 42.91723 9.87500 11157 ft 236 kts 224°
2026-04-23 19:18 42.90549 9.85943 11160 ft 236 kts 224°
2026-04-23 19:18 42.89369 9.84379 11164 ft 237 kts 224°
2026-04-23 19:18 42.88181 9.82807 11170 ft 238 kts 224°
2026-04-23 19:18 42.86991 9.81231 11180 ft 239 kts 224°
2026-04-23 19:19 42.84593 9.78061 11162 ft 241 kts 224°
2026-04-23 19:19 42.83403 9.76435 10970 ft 243 kts 229°
2026-04-23 19:20 42.82473 9.72136 10526 ft 242 kts 280°
2026-04-23 19:20 42.82840 9.69923 10374 ft 239 kts 288°
2026-04-23 19:20 42.83275 9.67738 10230 ft 240 kts 288°
2026-04-23 19:20 42.83637 9.65507 10083 ft 243 kts 283°
2026-04-23 19:21 42.83930 9.63237 9934 ft 244 kts 283°
2026-04-23 19:21 42.84558 9.58681 9636 ft 245 kts 283°
2026-04-23 19:21 42.84877 9.56396 9487 ft 246 kts 283°
2026-04-23 19:22 42.85194 9.54107 9344 ft 246 kts 283°
2026-04-23 19:22 42.85509 9.51820 9200 ft 246 kts 283°
2026-04-23 19:22 42.86138 9.47268 8926 ft 246 kts 283°
2026-04-23 19:23 42.86453 9.44975 8807 ft 246 kts 283°
2026-04-23 19:23 42.86767 9.42679 8699 ft 246 kts 283°
2026-04-23 19:23 42.87081 9.40386 8612 ft 246 kts 283°
2026-04-23 19:24 42.87710 9.35798 8340 ft 246 kts 283°
2026-04-23 19:24 42.88025 9.33503 8207 ft 247 kts 283°
2026-04-23 19:24 42.88650 9.28900 7959 ft 247 kts 283°
2026-04-23 19:25 42.89275 9.24293 7714 ft 247 kts 283°
2026-04-23 19:25 42.89719 9.19691 7435 ft 244 kts 271°
2026-04-23 19:26 42.89587 9.15095 7158 ft 241 kts 270°
2026-04-23 19:26 42.89559 9.12809 7026 ft 241 kts 271°
2026-04-23 19:27 42.89487 9.08273 6741 ft 236 kts 270°
2026-04-23 19:27 42.89377 9.01647 6249 ft 230 kts 270°
2026-04-23 19:28 42.89302 8.97299 5928 ft 228 kts 270°
2026-04-23 19:28 42.89226 8.92991 5615 ft 227 kts 270°
2026-04-23 19:29 42.89187 8.90848 5462 ft 226 kts 270°
2026-04-23 19:29 42.89109 8.86572 5159 ft 225 kts 270°
2026-04-23 19:30 42.88926 8.82324 4830 ft 225 kts 256°
2026-04-23 19:30 42.88210 8.80438 4630 ft 226 kts 230°
2026-04-23 19:30 42.85530 8.78783 4510 ft 206 kts 178°
2026-04-23 19:31 42.84162 8.79048 4509 ft 193 kts 162°
2026-04-23 19:31 42.82842 8.79164 4509 ft 192 kts 176°
2026-04-23 19:31 42.81514 8.79175 4508 ft 191 kts 174°
2026-04-23 19:31 42.80159 8.79196 4528 ft 199 kts 176°
2026-04-23 19:32 42.78753 8.79183 4521 ft 205 kts 175°
2026-04-23 19:32 42.77308 8.79212 4516 ft 211 kts 176°
2026-04-23 19:32 42.75826 8.79195 4513 ft 215 kts 176°
2026-04-23 19:32 42.74321 8.79218 4513 ft 218 kts 175°
2026-04-23 19:33 42.72810 8.79276 4500 ft 217 kts 175°
2026-04-23 19:33 42.71308 8.79347 4267 ft 216 kts 172°
2026-04-23 19:33 42.68414 8.79443 3963 ft 197 kts 180°
2026-04-23 19:34 42.67053 8.79315 3660 ft 191 kts 179°
2026-04-23 19:34 42.65785 8.79269 3472 ft 174 kts 176°
2026-04-23 19:34 42.63520 8.79307 2912 ft 146 kts 175°
2026-04-23 19:35 42.62554 8.79311 2559 ft 132 kts 176°
2026-04-23 19:35 42.61660 8.79318 2203 ft 127 kts 175°
2026-04-23 19:35 42.60794 8.79317 1906 ft 124 kts 175°
2026-04-23 19:35 42.59944 8.79289 1695 ft 118 kts 178°
2026-04-23 19:36 42.59150 8.79232 1319 ft 110 kts 178°
2026-04-23 19:36 42.58409 8.79287 952 ft 102 kts 174°
2026-04-23 19:36 42.57720 8.79347 798 ft 97 kts 181°
2026-04-23 19:36 42.57061 8.79312 634 ft 94 kts 182°
2026-04-23 19:37 42.56416 8.79306 529 ft 91 kts 178°
2026-04-23 19:37 42.55794 8.79313 407 ft 89 kts 180°
2026-04-23 19:37 42.55176 8.79298 300 ft 90 kts 181°
2026-04-23 19:37 42.54561 8.79306 199 ft 87 kts 178°
2026-04-23 19:38 42.53966 8.79301 110 ft 83 kts 179°
2026-04-23 19:38 42.53413 8.79311 129 ft 77 kts 177°
2026-04-23 19:38 42.52889 8.79366 207 ft 74 kts 175°
2026-04-23 19:38 42.52513 8.79418 190 ft 0 kts 173°